"Platform","Saginaw Bay ReCON Buoy"
"NDBC ID","45163"
"Latitude (deg)",43.98237
"Longitude (deg)",-83.59322
"Water Depth (m)",14.5
"Sensor Device","System Power Controller board voltage input"
"Sensor Type","Voltage at underwater hub"
"Sensor Units","voltage"
"Measurement","A sample"
"Time means","Time at sample (UTC time zone)"

"Note:","This data was collected for research purposes."
"Note:","Minimal quality checking has been performed so data may contain known or unknown errors."
"Note:","Data provided by NOAA. Please credit NOAA."
"Note:","For more info see www.glerl.noaa.gov/res/recon"

"Time (UTC)","U/W Hub"
"YYYY/MM/DD HH:MM","volts"
2021/05/12 16:17, 50.28
2021/05/12 16:37, 50.29
2021/05/12 16:57, 50.28
2021/05/12 17:17, 50.29
2021/05/12 17:37, 50.26
2021/05/12 17:57, 50.26
2021/05/12 18:17, 50.28
2021/05/12 18:37, 50.26
2021/05/12 18:57, 50.27
2021/05/12 19:17, 50.28
2021/05/12 19:37, 50.27
2021/05/12 19:57, 50.26
2021/05/12 20:17, 50.28
2021/05/12 20:37, 50.28
2021/05/12 20:57, 50.27
2021/05/12 21:17, 50.28
2021/05/12 21:37, 50.27
2021/05/12 21:57, 50.26
2021/05/12 22:17, 50.29
2021/05/12 22:37, 50.26
2021/05/12 22:57, 50.26
2021/05/12 23:17, 50.27
2021/05/12 23:37, 50.26
2021/05/12 23:57, 50.27
2021/05/13 00:17, 50.19
2021/05/13 00:37, 50.25
2021/05/13 00:57, 50.11
2021/05/13 01:17, 50.10
2021/05/13 01:37, 50.11
2021/05/13 01:57, 50.10
2021/05/13 02:17, 50.11
2021/05/13 02:37, 50.10
2021/05/13 02:57, 50.10
2021/05/13 03:17, 50.11
2021/05/13 03:37, 50.10
2021/05/13 03:57, 50.10
2021/05/13 04:17, 50.11
2021/05/13 04:37, 50.11
2021/05/13 04:57, 50.11
2021/05/13 05:17, 50.11
2021/05/13 05:37, 50.11
2021/05/13 05:57, 50.09
2021/05/13 06:17, 50.11
2021/05/13 06:37, 50.10
2021/05/13 06:57, 50.10
2021/05/13 07:17, 50.10
2021/05/13 07:37, 50.08
2021/05/13 07:57, 50.10
2021/05/13 08:17, 50.19
2021/05/13 08:37, 50.09
2021/05/13 08:57, 50.10
2021/05/13 09:17, 50.10
2021/05/13 09:37, 50.10
2021/05/13 09:57, 50.09
2021/05/13 10:17, 50.17
2021/05/13 10:37, 50.30
2021/05/13 10:57, 50.28
2021/05/13 11:17, 50.30
2021/05/13 11:37, 50.30
2021/05/13 11:57, 50.29
2021/05/13 12:17, 50.29
2021/05/13 12:37, 50.29
2021/05/13 12:57, 50.26
2021/05/13 13:17, 50.31
2021/05/13 13:37, 50.26
2021/05/13 13:57, 50.26
2021/05/13 14:17, 50.28
2021/05/13 14:37, 50.26
2021/05/13 14:57, 50.25
2021/05/13 15:17, 50.27
2021/05/13 15:37, 50.26
2021/05/13 15:57, 50.27
2021/05/13 16:17, 50.28
2021/05/13 16:37, 50.26
2021/05/13 16:57, 50.26
2021/05/13 17:17, 50.27
2021/05/13 17:37, 50.26
2021/05/13 17:57, 50.28
2021/05/13 18:17, 50.28
2021/05/13 18:37, 50.27
2021/05/13 18:57, 50.28
2021/05/13 19:17, 50.27
2021/05/13 19:37, 50.25
2021/05/13 19:57, 50.27
2021/05/13 20:17, 50.32
2021/05/13 20:37, 50.26
2021/05/13 20:57, 50.26
2021/05/13 21:17, 50.26
2021/05/13 21:37, 50.26
2021/05/13 21:57, 50.28
2021/05/13 22:17, 50.28
2021/05/13 22:37, 50.27
2021/05/13 22:57, 50.26
2021/05/13 23:17, 50.28
2021/05/13 23:37, 50.25
2021/05/13 23:57, 50.28
2021/05/14 00:17, 50.27
2021/05/14 00:37, 50.21
2021/05/14 00:57, 50.10
2021/05/14 01:17, 50.10
2021/05/14 01:37, 50.09
2021/05/14 01:57, 50.10
2021/05/14 02:17, 50.11
2021/05/14 02:37, 50.10
2021/05/14 02:57, 50.13
2021/05/14 03:17, 50.11
2021/05/14 03:37, 50.10
2021/05/14 03:57, 50.08
2021/05/14 04:17, 50.12
2021/05/14 04:37, 50.10
2021/05/14 04:57, 50.09
2021/05/14 05:17, 50.10
2021/05/14 05:37, 50.11
2021/05/14 05:57, 50.09
2021/05/14 06:17, 50.15
2021/05/14 06:37, 50.12
2021/05/14 06:57, 50.09
2021/05/14 07:17, 50.09
2021/05/14 07:37, 50.08
2021/05/14 07:57, 50.07
2021/05/14 08:17, 50.11
2021/05/14 08:37, 50.07
2021/05/14 08:57, 50.09
2021/05/14 09:17, 50.11
2021/05/14 09:37, 50.08
2021/05/14 09:57, 50.08
2021/05/14 10:17, 50.15
2021/05/14 10:37, 50.30
2021/05/14 10:57, 50.29
2021/05/14 11:17, 50.28
2021/05/14 11:37, 50.28
2021/05/14 11:57, 50.27
2021/05/14 12:17, 50.30
2021/05/14 12:37, 50.29
2021/05/14 12:57, 50.27
2021/05/14 13:17, 50.27
2021/05/14 13:37, 50.26
2021/05/14 13:57, 50.25
2021/05/14 14:17, 50.26
2021/05/14 14:37, 50.28
2021/05/14 14:57, 50.26
2021/05/14 15:17, 50.28
2021/05/14 15:37, 50.26
2021/05/14 15:57, 50.26
2021/05/14 16:17, 50.27
2021/05/14 16:37, 50.28
2021/05/14 16:57, 50.26
2021/05/14 17:17, 50.26
2021/05/14 17:37, 50.27
2021/05/14 17:57, 50.28
2021/05/14 18:17, 50.27
2021/05/14 18:37, 50.27
2021/05/14 18:57, 50.25
2021/05/14 19:17, 50.26
2021/05/14 19:37, 50.26
2021/05/14 19:57, 50.26
2021/05/14 20:17, 50.27
2021/05/14 20:37, 50.26
2021/05/14 20:57, 50.25
2021/05/14 21:17, 50.26
2021/05/14 21:37, 50.26
2021/05/14 21:57, 50.24
2021/05/14 22:17, 50.26
2021/05/14 22:37, 50.25
2021/05/14 22:57, 50.25
2021/05/14 23:17, 50.23
2021/05/14 23:37, 50.27
2021/05/14 23:57, 50.15
2021/05/15 00:17, 50.13
2021/05/15 00:37, 50.12
2021/05/15 00:57, 50.10
2021/05/15 01:17, 50.16
2021/05/15 01:37, 50.10
2021/05/15 01:57, 50.09
2021/05/15 02:17, 50.11
2021/05/15 02:37, 50.10
2021/05/15 02:57, 50.11
2021/05/15 03:17, 50.10
2021/05/15 03:37, 50.10
2021/05/15 03:57, 50.10
2021/05/15 04:17, 50.09
2021/05/15 04:37, 50.09
2021/05/15 04:57, 50.11
2021/05/15 05:17, 50.07
2021/05/15 05:37, 50.09
2021/05/15 05:57, 50.06
2021/05/15 06:17, 50.12
2021/05/15 06:37, 50.10
2021/05/15 06:57, 50.08
2021/05/15 07:17, 50.08
2021/05/15 07:37, 50.09
2021/05/15 07:57, 50.09
2021/05/15 08:17, 50.09
2021/05/15 08:37, 50.06
2021/05/15 08:57, 50.10
2021/05/15 09:17, 50.10
2021/05/15 09:37, 50.08
2021/05/15 09:57, 50.07
2021/05/15 10:17, 50.14
2021/05/15 10:37, 50.13
2021/05/15 10:57, 50.27
2021/05/15 11:17, 50.28
2021/05/15 11:37, 50.25
2021/05/15 11:57, 50.26
2021/05/15 12:17, 50.27
2021/05/15 12:37, 50.24
2021/05/15 12:57, 50.26
2021/05/15 13:17, 50.25
2021/05/15 13:37, 50.25
2021/05/15 13:57, 50.25
2021/05/15 14:17, 50.25
2021/05/15 14:37, 50.25
2021/05/15 14:57, 50.24
2021/05/15 15:17, 50.23
2021/05/15 15:37, 50.24
2021/05/15 15:57, 50.25
2021/05/15 16:17, 50.25
2021/05/15 16:37, 50.27
2021/05/15 16:57, 50.25
2021/05/15 17:17, 50.24
2021/05/15 17:37, 50.24
2021/05/15 17:57, 50.26
2021/05/15 18:17, 50.26
2021/05/15 18:37, 50.23
2021/05/15 18:57, 50.27
2021/05/15 19:17, 50.26
2021/05/15 19:37, 50.24
2021/05/15 19:57, 50.25
2021/05/15 20:17, 50.25
2021/05/15 20:37, 50.25
2021/05/15 20:57, 50.25
2021/05/15 21:17, 50.27
2021/05/15 21:37, 50.26
2021/05/15 21:57, 50.25
2021/05/15 22:17, 50.27
2021/05/15 22:37, 50.26
2021/05/15 22:57, 50.25
2021/05/15 23:17, 50.28
2021/05/15 23:37, 50.24
2021/05/15 23:57, 50.12
2021/05/16 00:17, 50.13
2021/05/16 00:37, 50.10
2021/05/16 00:57, 50.09
2021/05/16 01:17, 50.08
2021/05/16 01:37, 50.14
2021/05/16 01:57, 50.07
2021/05/16 02:17, 50.11
2021/05/16 02:37, 50.10
2021/05/16 02:57, 50.11
2021/05/16 03:17, 50.07
2021/05/16 03:37, 50.10
2021/05/16 03:57, 50.06
2021/05/16 04:17, 50.07
2021/05/16 04:37, 50.08
2021/05/16 04:57, 50.07
2021/05/16 05:17, 50.07
2021/05/16 05:37, 50.08
2021/05/16 05:57, 50.06
2021/05/16 06:17, 50.08
2021/05/16 06:37, 50.08
2021/05/16 06:57, 50.07
2021/05/16 07:17, 50.09
2021/05/16 07:37, 50.03
2021/05/16 07:57, 50.09
2021/05/16 08:17, 50.08
2021/05/16 08:37, 50.13
2021/05/16 08:57, 50.08
2021/05/16 09:17, 50.06
2021/05/16 09:37, 50.07
2021/05/16 09:57, 50.12
2021/05/16 10:17, 50.08
2021/05/16 10:37, 50.07
2021/05/16 10:57, 50.12
2021/05/16 11:17, 50.12
2021/05/16 11:37, 50.09
2021/05/16 11:57, 50.10
2021/05/16 12:17, 50.11
2021/05/16 12:37, 50.14
2021/05/16 12:57, 50.27
2021/05/16 13:17, 50.25
2021/05/16 13:37, 50.28
2021/05/16 13:57, 50.26
2021/05/16 14:17, 50.28
2021/05/16 14:37, 50.25
2021/05/16 14:57, 50.26
2021/05/16 15:17, 50.25
2021/05/16 15:37, 50.25
2021/05/16 15:57, 50.24
2021/05/16 16:17, 50.27
2021/05/16 16:37, 50.24
2021/05/16 16:57, 50.25
2021/05/16 17:17, 50.25
2021/05/16 17:37, 50.24
2021/05/16 17:57, 50.23
2021/05/16 18:17, 50.24
2021/05/16 18:37, 50.24
2021/05/16 18:57, 50.24
2021/05/16 19:17, 50.27
2021/05/16 19:37, 50.22
2021/05/16 19:57, 50.23
2021/05/16 20:17, 50.23
2021/05/16 20:37, 50.23
2021/05/16 20:57, 50.22
2021/05/16 21:17, 50.23
2021/05/16 21:37, 50.23
2021/05/16 21:57, 50.23
2021/05/16 22:17, 50.23
2021/05/16 22:37, 50.24
2021/05/16 22:57, 50.24
2021/05/16 23:17, 50.26
2021/05/16 23:37, 50.23
2021/05/16 23:57, 50.24
2021/05/17 00:17, 50.20
2021/05/17 00:37, 50.12
2021/05/17 00:57, 50.08
2021/05/17 01:17, 50.12
2021/05/17 01:37, 50.08
2021/05/17 01:57, 50.09
2021/05/17 02:17, 50.10
2021/05/17 02:37, 50.13
2021/05/17 02:57, 50.13
2021/05/17 03:17, 50.08
2021/05/17 03:37, 50.11
2021/05/17 03:57, 50.09
2021/05/17 04:17, 50.03
2021/05/17 04:37, 50.10
2021/05/17 04:57, 50.07
2021/05/17 05:17, 50.08
2021/05/17 05:37, 50.07
2021/05/17 05:57, 50.05
2021/05/17 06:17, 50.06
2021/05/17 06:37, 50.09
2021/05/17 06:57, 50.09
2021/05/17 07:17, 50.11
2021/05/17 07:37, 50.05
2021/05/17 07:57, 50.06
2021/05/17 08:17, 50.11
2021/05/17 08:37, 50.08
2021/05/17 08:57, 50.07
2021/05/17 09:17, 50.04
2021/05/17 09:37, 50.01
2021/05/17 09:57, 50.07
2021/05/17 10:17, 50.07
2021/05/17 10:37, 50.19
2021/05/17 10:57, 50.24
2021/05/17 11:17, 50.26
2021/05/17 11:37, 50.26
2021/05/17 11:57, 50.28
2021/05/17 12:17, 50.27
2021/05/17 12:37, 50.25
2021/05/17 12:57, 50.27
2021/05/17 13:17, 50.25
2021/05/17 13:37, 50.21
2021/05/17 13:57, 50.20
2021/05/17 14:17, 50.23
2021/05/17 14:37, 50.22
2021/05/17 14:57, 50.22
2021/05/17 15:17, 50.26
2021/05/17 15:37, 50.23
2021/05/17 15:57, 50.21
2021/05/17 16:17, 50.23
2021/05/17 16:37, 50.24
2021/05/17 16:57, 50.19
2021/05/17 17:17, 50.22
2021/05/17 17:37, 50.22
2021/05/17 17:57, 50.22
2021/05/17 18:17, 50.29
2021/05/17 18:37, 50.25
2021/05/17 18:57, 50.23
2021/05/17 19:17, 50.29
2021/05/17 19:37, 50.24
2021/05/17 19:57, 50.23
2021/05/17 20:17, 50.26
2021/05/17 20:37, 50.23
2021/05/17 20:57, 50.26
2021/05/17 21:17, 50.23
2021/05/17 21:37, 50.23
2021/05/17 21:57, 50.23
2021/05/17 22:17, 50.23
2021/05/17 22:37, 50.19
2021/05/17 22:57, 50.20
2021/05/17 23:17, 50.24
2021/05/17 23:37, 50.21
2021/05/17 23:57, 50.23
2021/05/18 00:17, 50.24
2021/05/18 00:37, 50.18
2021/05/18 00:57, 50.08
2021/05/18 01:17, 50.09
2021/05/18 01:37, 50.07
2021/05/18 01:57, 50.06
2021/05/18 02:17, 50.07
2021/05/18 02:37, 50.07
2021/05/18 02:57, 50.06
2021/05/18 03:17, 50.07
2021/05/18 03:37, 50.11
2021/05/18 03:57, 50.07
2021/05/18 04:17, 50.10
2021/05/18 04:37, 50.04
2021/05/18 04:57, 50.05
2021/05/18 05:17, 50.04
2021/05/18 05:37, 50.08
2021/05/18 05:57, 50.12
2021/05/18 06:17, 50.05
2021/05/18 06:37, 50.11
2021/05/18 06:57, 50.12
2021/05/18 07:17, 50.07
2021/05/18 07:37, 50.06
2021/05/18 07:57, 50.11
2021/05/18 08:17, 50.04
2021/05/18 08:37, 49.98
2021/05/18 08:57, 50.07
2021/05/18 09:17, 50.09
2021/05/18 09:37, 50.03
2021/05/18 09:57, 50.00
2021/05/18 10:17, 50.13
2021/05/18 10:37, 50.25
2021/05/18 10:57, 50.25
2021/05/18 11:17, 50.26
2021/05/18 11:37, 50.27
2021/05/18 11:57, 50.25
2021/05/18 12:17, 50.22
2021/05/18 12:37, 50.27
2021/05/18 12:57, 50.22
2021/05/18 13:17, 50.24
2021/05/18 13:37, 50.23
2021/05/18 13:57, 50.23
2021/05/18 14:17, 50.24
2021/05/18 14:37, 50.23
2021/05/18 14:57, 50.23
2021/05/18 15:17, 50.22
2021/05/18 15:37, 50.22
2021/05/18 15:57, 50.21
2021/05/18 16:17, 50.25
2021/05/18 16:37, 50.26
2021/05/18 16:57, 50.24
2021/05/18 17:17, 50.25
2021/05/18 17:37, 50.21
2021/05/18 17:57, 50.20
2021/05/18 18:17, 50.23
2021/05/18 18:37, 50.19
2021/05/18 18:57, 50.21
2021/05/18 19:17, 50.19
2021/05/18 19:37, 50.21
2021/05/18 19:57, 50.21
2021/05/18 20:17, 50.24
2021/05/18 20:37, 50.18
2021/05/18 20:57, 50.21
2021/05/18 21:17, 50.25
2021/05/18 21:37, 50.20
2021/05/18 21:57, 50.22
2021/05/18 22:17, 50.22
2021/05/18 22:37, 50.21
2021/05/18 22:57, 50.19
2021/05/18 23:17, 50.25
2021/05/18 23:37, 50.20
2021/05/18 23:57, 50.24
2021/05/19 00:17, 50.17
2021/05/19 00:37, 50.13
2021/05/19 00:57, 50.10
2021/05/19 01:17, 50.09
2021/05/19 01:37, 50.09
2021/05/19 01:57, 50.10
2021/05/19 02:17, 50.14
2021/05/19 02:37, 50.11
2021/05/19 02:57, 50.03
2021/05/19 03:17, 50.08
2021/05/19 03:37, 50.06
2021/05/19 03:57, 50.04
2021/05/19 04:17, 50.06
2021/05/19 04:37, 50.06
2021/05/19 04:57, 50.07
2021/05/19 05:17, 50.01
2021/05/19 05:37, 50.00
2021/05/19 05:57, 50.07
2021/05/19 06:17, 50.13
2021/05/19 06:37, 50.09
2021/05/19 06:57, 50.08
2021/05/19 07:17, 50.07
2021/05/19 07:37, 50.13
2021/05/19 07:57, 50.04
2021/05/19 08:17, 50.02
2021/05/19 08:37, 50.09
2021/05/19 08:57, 50.06
2021/05/19 09:17, 50.09
2021/05/19 09:37, 50.12
2021/05/19 09:57, 50.14
2021/05/19 10:17, 50.14
2021/05/19 10:37, 50.08
2021/05/19 10:57, 50.12
2021/05/19 11:17, 50.28
2021/05/19 11:37, 50.22
2021/05/19 11:57, 50.21
2021/05/19 12:17, 50.25
2021/05/19 12:37, 50.24
2021/05/19 12:57, 50.24
2021/05/19 13:17, 50.28
2021/05/19 13:37, 50.22
2021/05/19 13:57, 50.21
2021/05/19 14:17, 50.21
2021/05/19 14:37, 50.23
2021/05/19 14:57, 50.18
2021/05/19 15:17, 50.22
2021/05/19 15:37, 50.21
2021/05/19 15:57, 50.20
2021/05/19 16:17, 50.23
2021/05/19 16:37, 50.22
2021/05/19 16:57, 50.20
2021/05/19 17:17, 50.24
2021/05/19 17:37, 50.23
2021/05/19 17:57, 50.23
2021/05/19 18:17, 50.24
2021/05/19 18:37, 50.21
2021/05/19 18:57, 50.25
2021/05/19 19:17, 50.22
2021/05/19 19:37, 50.22
2021/05/19 19:57, 50.21
2021/05/19 20:17, 50.27
2021/05/19 20:37, 50.22
2021/05/19 20:57, 50.26
2021/05/19 21:17, 50.19
2021/05/19 21:37, 50.21
2021/05/19 21:57, 50.15
2021/05/19 22:17, 50.16
2021/05/19 22:37, 50.12
2021/05/19 22:57, 50.10
2021/05/19 23:17, 50.05
2021/05/19 23:37, 50.09
2021/05/19 23:57, 50.08
2021/05/20 00:17, 50.05
2021/05/20 00:37, 50.08
2021/05/20 00:57, 50.14
2021/05/20 01:17, 50.05
2021/05/20 01:37, 50.10
2021/05/20 01:57, 50.06
2021/05/20 02:17, 50.04
2021/05/20 02:37, 50.11
2021/05/20 02:57, 50.05
2021/05/20 03:17, 50.09
2021/05/20 03:37, 50.12
2021/05/20 03:57, 50.01
2021/05/20 04:17, 50.15
2021/05/20 04:37, 50.11
2021/05/20 04:57, 50.05
2021/05/20 05:17, 50.11
2021/05/20 05:37, 50.09
2021/05/20 05:57, 50.17
2021/05/20 06:17, 50.10
2021/05/20 06:37, 50.39
2021/05/20 06:57, 50.13
2021/05/20 07:17, 50.01
2021/05/20 07:37, 50.00
2021/05/20 07:57, 49.99
2021/05/20 08:17, 49.96
2021/05/20 08:37, 50.03
2021/05/20 08:57, 50.06
2021/05/20 09:17, 50.10
2021/05/20 09:37, 50.04
2021/05/20 09:57, 50.01
2021/05/20 10:17, 50.07
2021/05/20 10:37, 50.04
2021/05/20 10:57, 50.18
2021/05/20 11:17, 50.10
2021/05/20 11:37, 50.12
2021/05/20 11:57, 50.22
2021/05/20 12:17, 50.29
2021/05/20 12:37, 50.21
2021/05/20 12:57, 50.23
2021/05/20 13:17, 50.24
2021/05/20 13:37, 50.21
2021/05/20 13:57, 50.27
2021/05/20 14:17, 50.24
2021/05/20 14:37, 50.22
2021/05/20 14:57, 50.21
2021/05/20 15:17, 50.22
2021/05/20 15:37, 50.21
2021/05/20 15:57, 50.18
2021/05/20 16:17, 50.22
2021/05/20 16:37, 50.19
2021/05/20 16:57, 50.20
2021/05/20 17:17, 50.24
2021/05/20 17:37, 50.18
2021/05/20 17:57, 50.18
2021/05/20 18:17, 50.23
2021/05/20 18:37, 50.23
2021/05/20 18:57, 50.17
2021/05/20 19:17, 50.20
2021/05/20 19:37, 50.19
2021/05/20 19:57, 50.19
2021/05/20 20:17, 50.20
2021/05/20 20:37, 50.22
2021/05/20 20:57, 50.21
2021/05/20 21:17, 50.19
2021/05/20 21:37, 50.18
2021/05/20 21:57, 50.19
2021/05/20 22:17, 50.18
2021/05/20 22:37, 50.25
2021/05/20 22:57, 50.22
2021/05/20 23:17, 50.23
2021/05/20 23:37, 50.23
2021/05/20 23:57, 50.13
2021/05/21 00:17, 50.11
2021/05/21 00:37, 50.11
2021/05/21 00:57, 50.09
2021/05/21 01:17, 50.10
2021/05/21 01:37, 50.06
2021/05/21 01:57, 50.07
2021/05/21 02:17, 50.05
2021/05/21 02:37, 50.07
2021/05/21 02:57, 50.05
2021/05/21 03:17, 50.08
2021/05/21 03:37, 50.08
2021/05/21 03:57, 50.01
2021/05/21 04:17, 50.06
2021/05/21 04:37, 50.07
2021/05/21 04:57, 50.13
2021/05/21 05:17, 50.08
2021/05/21 05:37, 50.04
2021/05/21 05:57, 50.05
2021/05/21 06:17, 50.05
2021/05/21 06:37, 49.96
2021/05/21 06:57, 50.14
2021/05/21 07:17, 50.14
2021/05/21 07:37, 49.98
2021/05/21 07:57, 50.12
2021/05/21 08:17, 50.12
2021/05/21 08:37, 50.06
2021/05/21 08:57, 49.99
2021/05/21 09:17, 50.09
2021/05/21 09:37, 50.03
2021/05/21 09:57, 50.13
2021/05/21 10:17, 49.98
2021/05/21 10:37, 50.06
2021/05/21 10:57, 50.13
2021/05/21 11:17, 50.24
2021/05/21 11:37, 50.24
2021/05/21 11:57, 50.20
2021/05/21 12:17, 50.20
2021/05/21 12:37, 50.24
2021/05/21 12:57, 50.23
2021/05/21 13:17, 50.27
2021/05/21 13:37, 50.19
2021/05/21 13:57, 50.20
2021/05/21 14:17, 50.21
2021/05/21 14:37, 50.19
2021/05/21 14:57, 50.20
2021/05/21 15:17, 50.19
2021/05/21 15:37, 50.19
2021/05/21 15:57, 50.23
2021/05/21 16:17, 50.19
2021/05/21 16:37, 50.20
2021/05/21 16:57, 50.20
2021/05/21 17:17, 50.19
2021/05/21 17:37, 50.20
2021/05/21 17:57, 50.24
2021/05/21 18:17, 50.16
2021/05/21 18:37, 50.19
2021/05/21 18:57, 50.14
2021/05/21 19:17, 50.20
2021/05/21 19:37, 50.22
2021/05/21 19:57, 50.19
2021/05/21 20:17, 50.19
2021/05/21 20:37, 50.21
2021/05/21 20:57, 50.18
2021/05/21 21:17, 50.21
2021/05/21 21:37, 50.19
2021/05/21 21:57, 50.18
2021/05/21 22:17, 50.20
2021/05/21 22:37, 50.24
2021/05/21 22:57, 50.21
2021/05/21 23:17, 50.16
2021/05/21 23:37, 50.20
2021/05/21 23:57, 50.08
2021/05/22 00:17, 50.16
2021/05/22 00:37, 50.10
2021/05/22 00:57, 50.05
2021/05/22 01:17, 50.15
2021/05/22 01:37, 50.04
2021/05/22 01:57, 50.06
2021/05/22 02:17, 50.01
2021/05/22 02:37, 49.97
2021/05/22 02:57, 49.96
2021/05/22 03:17, 50.09
2021/05/22 03:37, 50.03
2021/05/22 03:57, 50.04
2021/05/22 04:17, 50.15
2021/05/22 04:37, 50.05
2021/05/22 04:57, 50.05
2021/05/22 05:17, 50.14
2021/05/22 05:37, 50.09
2021/05/22 05:57, 50.03
2021/05/22 06:17, 50.11
2021/05/22 06:37, 50.14
2021/05/22 06:57, 49.97
2021/05/22 07:17, 49.98
2021/05/22 07:37, 50.12
2021/05/22 07:57, 50.10
2021/05/22 08:17, 50.02
2021/05/22 08:37, 50.06
2021/05/22 08:57, 50.11
2021/05/22 09:17, 50.06
2021/05/22 09:37, 50.07
2021/05/22 09:57, 50.03
2021/05/22 10:17, 50.17
2021/05/22 10:37, 50.04
2021/05/22 10:57, 50.02
2021/05/22 11:17, 50.06
2021/05/22 11:37, 49.98
2021/05/22 11:57, 49.99
2021/05/22 12:17, 50.08
2021/05/22 12:37, 50.11
2021/05/22 12:57, 50.14
2021/05/22 13:17, 50.23
2021/05/22 13:37, 50.16
2021/05/22 13:57, 50.20
2021/05/22 14:17, 50.28
2021/05/22 14:37, 50.23
2021/05/22 14:57, 50.20
2021/05/22 15:17, 50.19
2021/05/22 15:37, 50.21
2021/05/22 15:57, 50.18
2021/05/22 16:17, 50.25
2021/05/22 16:37, 50.21
2021/05/22 16:57, 50.20
2021/05/22 17:17, 50.21
2021/05/22 17:37, 50.19
2021/05/22 17:57, 50.23
2021/05/22 18:17, 50.21
2021/05/22 18:37, 50.21
2021/05/22 18:57, 50.23
2021/05/22 19:17, 50.19
2021/05/22 19:37, 50.16
2021/05/22 19:57, 50.17
2021/05/22 20:17, 50.25
2021/05/22 20:37, 50.20
2021/05/22 20:57, 50.19
2021/05/22 21:17, 50.19
2021/05/22 21:37, 50.14
2021/05/22 21:57, 50.17
2021/05/22 22:17, 50.20
2021/05/22 22:37, 50.20
2021/05/22 22:57, 50.25
2021/05/22 23:17, 50.23
2021/05/22 23:37, 50.20
2021/05/22 23:57, 50.23
2021/05/23 00:17, 50.21
2021/05/23 00:37, 50.15
2021/05/23 00:57, 50.05
2021/05/23 01:17, 49.99
2021/05/23 01:37, 50.13
2021/05/23 01:57, 50.09
2021/05/23 02:17, 50.15
2021/05/23 02:37, 50.08
2021/05/23 02:57, 50.09
2021/05/23 03:17, 50.02
2021/05/23 03:37, 50.06
2021/05/23 03:57, 50.03
2021/05/23 04:17, 50.06
2021/05/23 04:37, 50.09
2021/05/23 04:57, 50.04
2021/05/23 05:17, 50.09
2021/05/23 05:37, 50.02
2021/05/23 05:57, 50.03
2021/05/23 06:17, 50.06
2021/05/23 06:37, 49.99
2021/05/23 06:57, 50.03
2021/05/23 07:17, 50.04
2021/05/23 07:37, 49.96
2021/05/23 07:57, 50.14
2021/05/23 08:17, 50.15
2021/05/23 08:37, 50.05
2021/05/23 08:57, 50.01
2021/05/23 09:17, 49.99
2021/05/23 09:37, 50.05
2021/05/23 09:57, 49.95
2021/05/23 10:17, 50.09
2021/05/23 10:37, 50.22
2021/05/23 10:57, 50.28
2021/05/23 11:17, 50.23
2021/05/23 11:37, 50.24
2021/05/23 11:57, 50.20
2021/05/23 12:17, 50.20
2021/05/23 12:37, 50.13
2021/05/23 12:57, 50.12
2021/05/23 13:17, 50.18
2021/05/23 13:37, 50.18
2021/05/23 13:57, 50.18
2021/05/23 14:17, 50.18
2021/05/23 14:37, 50.12
2021/05/23 14:57, 50.19
2021/05/23 15:17, 50.15
2021/05/23 15:37, 50.24
2021/05/23 15:57, 50.23
2021/05/23 16:17, 50.21
2021/05/23 16:37, 50.20
2021/05/23 16:57, 50.29
2021/05/23 17:17, 50.25
2021/05/23 17:37, 50.24
2021/05/23 17:57, 50.25
2021/05/23 18:17, 50.29
2021/05/23 18:37, 50.27
2021/05/23 18:57, 50.25
2021/05/23 19:17, 50.24
2021/05/23 19:37, 50.29
2021/05/23 19:57, 50.27
2021/05/23 20:17, 50.25
2021/05/23 20:37, 50.25
2021/05/23 20:57, 50.25
2021/05/23 21:17, 50.25
2021/05/23 21:37, 50.29
2021/05/23 21:57, 50.26
2021/05/23 22:17, 50.23
2021/05/23 22:37, 50.22
2021/05/23 22:57, 50.21
2021/05/23 23:17, 50.24
2021/05/23 23:37, 50.18
2021/05/23 23:57, 50.13
2021/05/24 00:17, 50.11
2021/05/24 00:37, 50.02
2021/05/24 00:57, 50.08
2021/05/24 01:17, 50.00
2021/05/24 01:37, 50.09
2021/05/24 01:57, 50.13
2021/05/24 02:17, 50.04
2021/05/24 02:37, 50.09
2021/05/24 02:57, 50.12
2021/05/24 03:17, 50.00
2021/05/24 03:37, 50.08
2021/05/24 03:57, 50.02
2021/05/24 04:17, 50.11
2021/05/24 04:37, 50.05
2021/05/24 04:57, 50.10
2021/05/24 05:17, 49.99
2021/05/24 05:37, 50.04
2021/05/24 05:57, 50.13
2021/05/24 06:17, 50.04
2021/05/24 06:37, 50.04
2021/05/24 06:57, 49.96
2021/05/24 07:17, 50.03
2021/05/24 07:37, 50.12
2021/05/24 07:57, 50.10
2021/05/24 08:17, 50.06
2021/05/24 08:37, 49.94
2021/05/24 08:57, 50.08
2021/05/24 09:17, 50.03
2021/05/24 09:37, 50.07
2021/05/24 09:57, 49.99
2021/05/24 10:17, 50.06
2021/05/24 10:37, 50.17
2021/05/24 10:57, 50.13
2021/05/24 11:17, 50.28
2021/05/24 11:37, 50.20
2021/05/24 11:57, 50.14
2021/05/24 12:17, 50.18
2021/05/24 12:37, 50.23
2021/05/24 12:57, 50.26
2021/05/24 13:17, 50.25
2021/05/24 13:37, 50.25
2021/05/24 13:57, 50.21
2021/05/24 14:17, 50.23
2021/05/24 14:37, 50.25
2021/05/24 14:57, 50.31
2021/05/24 15:17, 50.24
2021/05/24 15:37, 50.21
2021/05/24 15:57, 50.26
2021/05/24 16:17, 50.28
2021/05/24 16:37, 50.24
2021/05/24 16:57, 50.21
2021/05/24 17:17, 50.24
2021/05/24 17:37, 50.24
2021/05/24 17:57, 50.24
2021/05/24 18:17, 50.24
2021/05/24 18:37, 50.22
2021/05/24 18:57, 50.21
2021/05/24 19:17, 50.23
2021/05/24 19:37, 50.22
2021/05/24 19:57, 50.25
2021/05/24 20:17, 50.24
2021/05/24 20:37, 50.22
2021/05/24 20:57, 50.21
2021/05/24 21:17, 50.23
2021/05/24 21:37, 50.20
2021/05/24 21:57, 50.25
2021/05/24 22:17, 50.21
2021/05/24 22:37, 50.24
2021/05/24 22:57, 50.24
2021/05/24 23:17, 50.20
2021/05/24 23:37, 50.21
2021/05/24 23:57, 50.16
2021/05/25 00:17, 50.22
2021/05/25 00:37, 50.11
2021/05/25 00:57, 50.07
2021/05/25 01:17, 50.03
2021/05/25 01:37, 50.04
2021/05/25 01:57, 50.05
2021/05/25 02:17, 50.04
2021/05/25 02:37, 50.04
2021/05/25 02:57, 50.12
2021/05/25 03:17, 50.14
2021/05/25 03:37, 50.09
2021/05/25 03:57, 50.14
2021/05/25 04:17, 50.07
2021/05/25 04:37, 50.07
2021/05/25 04:57, 50.14
2021/05/25 05:17, 50.07
2021/05/25 05:37, 50.06
2021/05/25 05:57, 50.04
2021/05/25 06:17, 50.07
2021/05/25 06:37, 50.07
2021/05/25 06:57, 50.15
2021/05/25 07:17, 50.03
2021/05/25 07:37, 50.06
2021/05/25 07:57, 50.01
2021/05/25 08:17, 50.04
2021/05/25 08:37, 50.11
2021/05/25 08:57, 50.09
2021/05/25 09:17, 50.03
2021/05/25 09:37, 50.06
2021/05/25 09:57, 50.08
2021/05/25 10:17, 50.12
2021/05/25 10:37, 50.22
2021/05/25 10:57, 50.20
2021/05/25 11:17, 50.21
2021/05/25 11:37, 50.28
2021/05/25 11:57, 50.27
2021/05/25 12:17, 50.24
2021/05/25 12:37, 50.30
2021/05/25 12:57, 50.21
2021/05/25 13:17, 50.29
2021/05/25 13:37, 50.24
2021/05/25 13:57, 50.25
2021/05/25 14:17, 50.20
2021/05/25 14:37, 50.18
2021/05/25 14:57, 50.22